Location: Middlebury
(44.0153°N, 73.1678°W)
Time: 13:01:00
(UTC-04:00)

QB50P2 - Pass Details

Date: 20 June 2024
Orbit: 562 x 579 km, 98.0° (Epoch: 14 July)

Event Time Altitude Azimuth Distance (km) Brightness Sun altitude
Rises 02:40:31 0° 29° (NNE) 2,767 ? -18.3°
Reaches altitude 10° 02:43:13 10° 48° (NE) 1,863 ? -18.1°
Maximum altitude 02:46:04 19° 93° (E) 1,389 ? -17.9°
Drops below altitude 10° 02:48:54 10° 139° (SE) 1,849 ? -17.6°
Enters shadow 02:49:05 - 140° (SE) 1,899 ? -17.6°
